Simultaneous Nadir Overpasses (SNOs) Predictions

Prediction of SNOs between FY3D and METOP-C Satellite Orbit:

Table of predicted SNOs for the next 14.0 days since TLE Epoch: 2/18/2024
Index Date (FY3D) Time (FY3D) Lat,Lon (FY3D) SZA (FY3D ) Date (METOP-C) Time (METOP-C) Lat,Lon (METOP-C) SZA (METOP-C ) Distance(km) Time Diff (sec)
1 03/02/2024 20:57:53 76.20,-137.96 82.97 03/02/2024 20:58:57 76.14,-134.27 82.84 98.45 64
2 03/02/2024 21:48:35 -76.05, 29.87 97.20 03/02/2024 21:49:42 -76.04, 32.70 97.28 75.95 67
3 03/02/2024 22:39:15 75.79,-161.91 82.50 03/02/2024 22:40:27 75.75,-160.91 82.44 27.80 72
4 03/02/2024 23:29:58 -75.69, 5.73 97.62 03/02/2024 23:31:12 -75.65, 6.08 97.68 10.73 74
5 03/03/2024 00:20:42 75.61, 173.32 82.28 03/03/2024 00:21:52 75.59, 173.24 82.26 2.65 70
6 03/03/2024 01:11:27 -75.60, -19.35 97.75 03/03/2024 01:12:34 -75.63, -19.32 97.72 3.26 67
7 03/03/2024 02:02:13 75.61, 147.94 82.26 03/03/2024 02:03:13 75.62, 147.99 82.26 1.93 60
8 03/03/2024 02:52:58 -75.60, -44.73 97.77 03/03/2024 02:53:56 -75.61, -44.72 97.77 0.91 58



Historial Predications of SNOs between FY3D and METOP-C
